Philadelphia, Tennessee, United States (37846)
Lat: 35.68N, Lon: 84.4W
Wx Zone: TNZ068
Local Info
Past Weather Observations for Today

NOTE: This archive is for the closest National Weather Service station to Philadelphia. Information may differ from the station used for current weather conditions.

Time Weather Temperature Dewpoint Humidity Pressure Winds Precip Visibility
17:53
Partly Cloudy
73°F / 23°C 37°F / 3°C 27% 30.12 in
(1020 mb)
ENE 5.8 mph
(ENE 9 kph)
- 10SM
16:53
Clear
75°F / 24°C 39°F / 4°C 27% 30.12 in
(1020 mb)
NE 6.9 mph
(NE 11 kph)
- 10SM
15:53
Partly Cloudy
75°F / 24°C 39°F / 4°C 27% 30.15 in
(1021 mb)
N 8.1 mph
(N 13 kph)
- 10SM
14:53
Partly Cloudy
75°F / 24°C 43°F / 6°C 31% 30.15 in
(1021 mb)
Variable 6.9 mph
(Variable 11 kph)
- 10SM
13:53
Partly Cloudy
73°F / 23°C 43°F / 6°C 33% 30.18 in
(1022 mb)
ENE 4.6 mph
(ENE 7 kph)
- 10SM
12:53
Clear
72°F / 22°C 46°F / 8°C 41% 30.21 in
(1023 mb)
N 5.8 mph
(N 9 kph)
- 10SM
11:53
Partly Cloudy
68°F / 20°C 45°F / 7°C 43% 30.24 in
(1024 mb)
Variable 3.5 mph
(Variable 6 kph)
- 10SM
10:53
Partly Cloudy
64°F / 18°C 46°F / 8°C 52% 30.24 in
(1024 mb)
ENE 5.8 mph
(ENE 9 kph)
- 10SM
08:53
Partly Cloudy
57°F / 14°C 46°F / 8°C 67% 30.24 in
(1024 mb)
E 4.6 mph
(E 7 kph)
- 10SM
08:00
Clear
Fog And Mist
52°F / 11°C 48°F / 9°C 88% 30.24 in
(1024 mb)
NE 3.5 mph
(NE 6 kph)
- 3SM
07:53
Partly Cloudy
Fog And Mist
50°F / 10°C 48°F / 9°C 94% 30.24 in
(1024 mb)
NE 3.5 mph
(NE 6 kph)
- 2SM
06:58
Partly Cloudy
Fog And Mist
46°F / 8°C 46°F / 8°C 100% 30.24 in
(1024 mb)
Calm - 2SM
06:53
Partly Cloudy
Fog And Mist
46°F / 8°C 46°F / 8°C 100% 30.24 in
(1024 mb)
Calm - 1 1/4SM
06:30
Partly Cloudy
Fog And Mist
43°F / 6°C 43°F / 6°C 100% 30.24 in
(1024 mb)
Calm - 1 1/4SM
06:21
Partly Cloudy
Fog And Mist
43°F / 6°C 43°F / 6°C 100% 30.24 in
(1024 mb)
Calm - 1 1/4SM
06:18
Partly Cloudy
Fog And Mist
43°F / 6°C 43°F / 6°C 100% 30.24 in
(1024 mb)
Calm - 3/4SM
06:00
Partly Cloudy
Fog
45°F / 7°C 45°F / 7°C 100% 30.24 in
(1024 mb)
E 3.5 mph
(E 6 kph)
- 3SM
05:53
Partly Cloudy
Fog
43°F / 6°C 43°F / 6°C 100% 30.24 in
(1024 mb)
E 4.6 mph
(E 7 kph)
- 1/4SM
05:19
Partly Cloudy
Fog And Mist
45°F / 7°C 45°F / 7°C 100% 30.21 in
(1023 mb)
Calm - 1SM
04:53
Partly Cloudy
Fog And Mist
46°F / 8°C 45°F / 7°C 93% 30.21 in
(1023 mb)
Calm - 3/4SM
04:38
Partly Cloudy
Fog And Mist
45°F / 7°C 45°F / 7°C 100% 30.21 in
(1023 mb)
Calm - 3/4SM
03:53
Partly Cloudy
Fog
48°F / 9°C 46°F / 8°C 94% 30.21 in
(1023 mb)
SW 3.5 mph
(SW 6 kph)
- 6SM
02:53
Partly Cloudy
Fog
48°F / 9°C 48°F / 9°C 100% 30.18 in
(1022 mb)
Calm - 6SM
01:53
Partly Cloudy
Fog
50°F / 10°C 48°F / 9°C 94% 30.18 in
(1022 mb)
Calm - 7SM
00:53
Partly Cloudy
Fog
50°F / 10°C 48°F / 9°C 94% 30.18 in
(1022 mb)
NW 3.5 mph
(NW 6 kph)
- 8SM
Time Weather Temperature Dewpoint Humidity Pressure Winds Precip Visibility


Weather for websites

WeatherForYou.com, LLC is not responsible for any damages or problems caused by this service. Current weather conditions are obtained from the closest station including government and personal stations which may have varying degrees of accuracy. Weather forecasts are derived from the NOAA NDFD. Like all things, this site belongs to Jesus Christ... He just trusts me to maintain it. If you have any questions or comments email webmaster@weatherforyou.com

Copyright © 2014, WeatherForYou.com LLC. All rights reserved.